Вернуться в каталог

STARLINK-32452

АктивенСвязьVLEO
NORAD 61961·PAYLOAD·🇺🇸 United States

Запущен Nov 14, 2024 с Cape Canaveral Space Force Station

Loading…

Ближайшие Пролёты (ближайшие 24 часа)

TLE

СвежийSource: CelesTrak SupGP

Эпоха: Sep 15, 2026, 03:11 UTC

1 61961C 24210C   26258.13312500 -.00024158  00000+0 -87503-3 0  2585
2 61961  43.0022 182.8654 0001479 271.1933 131.0423 15.27589557    16

Отслеживайте STARLINK-32452 в реальном времени с AllMySat

Download on the App Store